Tracking 25723 objects as of 27-Jun-2022
HD Live streaming from Space Station
objects crossing your sky now

STARLINK-1748

Track STARLINK-1748 now!
10-day predictions
STARLINK-1748 is classified as:


NORAD ID: 46570
Int'l Code: 2020-070AQ
Perigee: 549.5 km
Apogee: 553.4 km
Inclination: 53.1 °
Period: 95.5 minutes
Semi major axis: 6922 km
RCS: Unknown
Launch date: October 6, 2020
Source: United States (US)
Launch site: AIR FORCE EASTERN TEST RANGE (AFETR)
aabbcc
Your satellite tracking list
Your tracking list is empty




NASA's NSSDC Master Catalog

Two Line Element Set (TLE):
1 46570U 20070AQ  22177.54303813  .00016493  00000-0  10951-2 0  9998
2 46570  53.0546 106.5009 0002834  81.3476 278.7834 15.07352400 95981
Source of the keplerian elements: AFSPC